Temp
-20 -20 -20 -20 -21 -22 -23 -23 -23 -24 -24 -23 -23 -23 -22 -22 -22 -22 -22 -21 -21 -21 -22 -22 -22 -23 -23 -24 -22 -22 -22 -21 -21 -23 -23 -22 -22 -20 -20 -19 -19 -19 -18 -18
-22 -23 -23 -22 -23 -24 -23 -24 -25 -24 -23 -23 -23 -23 -22 -22 -22 -22 -22 -22 -22 -23 -24 -25 -25 -26 -25 -25 -24 -24 -23 -22 -21 -22 -22 -22 -20 -20 -19 -19 -19 -19 -19 -18
-23 -23 -24 -24 -25 -24 -25 -25 -24 -24 -23 -23 -23 -23 -23 -23 -23 -23 -23 -23 -24 -25 -26 -26 -26 -27 -26 -26 -26 -25 -25 -23 -22 -22 -21 -21 -20 -21 -20 -20 -20 -20 -19 -19
-24 -24 -25 -25 -25 -26 -25 -24 -24 -24 -24 -24 -23 -23 -23 -23 -24 -24 -24 -25 -25 -26 -26 -27 -28 -28 -28 -28 -28 -26 -25 -24 -23 -22 -22 -21 -20 -20 -20 -20 -20 -20 -20 -19
-25 -26 -26 -26 -26 -25 -25 -24 -24 -24 -24 -24 -24 -24 -24 -24 -25 -25 -25 -25 -26 -26 -27 -28 -28 -28 -28 -28 -28 -26 -25 -24 -23 -23 -22 -22 -21 -22 -21 -21 -20 -20 -20 -20
-26 -26 -27 -26 -26 -25 -25 -25 -24 -24 -24 -24 -24 -24 -24 -25 -25 -25 -25 -26 -26 -26 -27 -28 -28 -28 -28 -28 -28 -27 -26 -25 -24 -23 -23 -22 -22 -21 -21 -21 -21 -21 -20 -19
-26 -26 -27 -27 -26 -25 -25 -25 -25 -24 -24 -24 -24 -24 -24 -25 -25 -25 -26 -26 -26 -26 -27 -28 -28 -28 -28 -28 -28 -27 -25 -24 -24 -22 -22 -23 -22 -22 -23 -22 -21 -21 -20 -19
-26 -27 -27 -26 -26 -25 -25 -25 -25 -25 -25 -25 -25 -25 -25 -25 -25 -26 -26 -26 -27 -26 -27 -27 -28 -28 -28 -28 -27 -26 -25 -24 -23 -23 -23 -23 -23 -23 -23 -23 -22 -21 -20 -20
-26 -26 -26 -26 -26 -26 -25 -25 -25 -25 -25 -25 -25 -25 -25 -26 -26 -26 -26 -26 -27 -26 -26 -27 -27 -27 -27 -27 -27 -27 -25 -24 -24 -23 -23 -23 -23 -23 -23 -23 -22 -21 -21 -20
-26 -26 -26 -26 -26 -26 -26 -26 -26 -25 -25 -26 -26 -26 -26 -27 -27 -27 -27 -27 -27 -27 -27 -27 -27 -27 -27 -27 -27 -26 -26 -25 -24 -24 -24 -23 -23 -24 -23 -23 -22 -21 -21 -21
-26 -26 -26 -26 -26 -26 -26 -26 -26 -26 -26 -26 -27 -27 -27 -27 -27 -28 -28 -28 -28 -27 -27 -27 -27 -26 -27 -26 -26 -26 -25 -25 -25 -24 -24 -24 -24 -23 -23 -23 -22 -22 -21 -21
-26 -26 -27 -27 -27 -26 -27 -26 -26 -26 -26 -27 -28 -28 -28 -29 -29 -29 -29 -29 -29 -28 -27 -27 -27 -27 -26 -26 -26 -26 -25 -25 -24 -24 -24 -24 -24 -24 -23 -23 -22 -22 -21 -21
-26 -27 -27 -27 -27 -27 -27 -27 -27 -27 -27 -28 -28 -29 -29 -29 -29 -30 -30 -29 -29 -28 -28 -27 -27 -27 -27 -26 -26 -26 -26 -25 -25 -25 -25 -24 -24 -23 -23 -23 -23 -22 -22 -21
-27 -27 -27 -27 -27 -27 -27 -27 -27 -27 -28 -28 -29 -29 -30 -30 -30 -30 -30 -29 -29 -29 -28 -27 -27 -27 -27 -27 -27 -26 -26 -26 -26 -25 -25 -24 -24 -23 -23 -23 -23 -22 -22 -21
-27 -27 -27 -27 -27 -27 -27 -27 -27 -28 -29 -29 -29 -30 -30 -30 -30 -30 -30 -30 -29 -29 -28 -27 -27 -27 -27 -27 -27 -27 -26 -26 -26 -25 -24 -24 -24 -23 -24 -24 -23 -23 -23 -22
-27 -27 -27 -27 -27 -28 -28 -28 -28 -28 -29 -30 -30 -30 -30 -30 -30 -30 -30 -30 -30 -29 -28 -27 -27 -27 -27 -27 -27 -27 -26 -26 -26 -25 -25 -24 -24 -24 -24 -24 -24 -24 -24 -23
-27 -27 -28 -28 -28 -28 -28 -28 -28 -29 -30 -30 -30 -30 -30 -30 -30 -30 -30 -30 -30 -29 -28 -28 -27 -27 -27 -27 -27 -27 -27 -26 -26 -25 -25 -25 -24 -24 -24 -24 -24 -24 -23 -23
-28 -28 -28 -28 -28 -28 -28 -29 -29 -29 -30 -30 -30 -30 -30 -30 -30 -31 -31 -30 -29 -29 -29 -28 -27 -27 -27 -27 -27 -26 -26 -26 -25 -25 -25 -25 -24 -24 -24 -24 -24 -24 -24 -24
-28 -28 -28 -28 -28 -28 -29 -29 -29 -30 -30 -30 -30 -30 -30 -31 -31 -31 -31 -30 -29 -29 -28 -28 -27 -27 -27 -27 -27 -27 -26 -25 -25 -25 -25 -25 -25 -24 -24 -24 -24 -24 -24 -24
-29 -29 -29 -28 -28 -29 -29 -29 -29 -30 -30 -30 -31 -31 -31 -31 -31 -31 -30 -29 -28 -28 -28 -28 -28 -28 -27 -26 -26 -26 -26 -25 -25 -25 -25 -25 -25 -25 -25 -24 -24 -24 -24 -24
-29 -29 -29 -29 -29 -29 -29 -29 -30 -30 -30 -30 -30 -31 -30 -30 -30 -30 -29 -29 -28 -28 -28 -28 -28 -28 -27 -27 -26 -26 -26 -26 -25 -25 -25 -25 -25 -25 -25 -25 -25 -24 -24 -24
-29 -29 -29 -30 -29 -29 -29 -29 -29 -29 -29 -30 -30 -30 -30 -30 -29 -29 -28 -28 -28 -28 -28 -27 -27 -27 -27 -26 -26 -26 -26 -25 -25 -25 -25 -25 -25 -25 -24 -24 -24 -24 -24 -24
-30 -30 -30 -30 -29 -29 -29 -29 -29 -29 -29 -29 -29 -29 -28 -28 -28 -28 -28 -28 -28 -28 -27 -27 -27 -27 -26 -26 -26 -25 -25 -25 -25 -25 -25 -25 -25 -25 -25 -25 -25 -25 -25 -25
-30 -30 -30 -29 -29 -29 -29 -29 -28 -28 -28 -28 -28 -28 -28 -28 -28 -28 -28 -27 -28 -27 -27 -27 -27 -26 -26 -26 -26 -25 -25 -25 -25 -25 -25 -25 -26 -26 -26 -26 -26 -26 -26 -25
-30 -30 -30 -29 -29 -29 -29 -28 -28 -28 -28 -28 -28 -28 -28 -28 -28 -28 -28 -27 -27 -27 -27 -27 -26 -26 -26 -26 -25 -25 -25 -25 -25 -26 -26 -26 -26 -25 -25 -25 -25 -25 -26 -26
-30 -30 -29 -29 -29 -29 -29 -28 -28 -28 -28 -28 -28 -28 -28 -28 -27 -27 -27 -27 -27 -27 -27 -27 -27 -26 -26 -26 -25 -26 -26 -26 -26 -26 -26 -25 -25 -25 -26 -26 -26 -26 -26 -26
-30 -30 -30 -29 -29 -29 -29 -28 -28 -28 -28 -28 -28 -27 -28 -28 -28 -28 -27 -27 -27 -27 -27 -26 -26 -26 -26 -26 -25 -25 -25 -25 -25 -25 -26 -26 -26 -26 -26 -26 -27 -27 -27 -27
Height
5526 5532 5536 5541 5545 5549 5554 5558 5562 5565 5568 5572 5571 5572 5571 5571 5569 5569 5567 5564 5561 5557 5552 5548 5547 5548 5550 5548 5554 5561 5564 5568 5571 5576 5579 5582 5584 5585 5588 5588 5592 5591 5592 5592
5519 5525 5531 5536 5540 5545 5550 5553 5558 5561 5563 5564 5564 5564 5563 5561 5560 5558 5555 5551 5547 5540 5535 5533 5533 5531 5532 5535 5538 5546 5552 5559 5563 5567 5573 5574 5575 5580 5583 5583 5584 5586 5587 5590
5516 5521 5526 5533 5537 5541 5545 5550 5553 5555 5556 5557 5557 5556 5553 5552 5550 5547 5543 5539 5534 5530 5528 5525 5524 5521 5521 5521 5523 5530 5536 5546 5553 5559 5565 5566 5568 5570 5573 5577 5579 5580 5582 5583
5514 5520 5523 5529 5533 5538 5543 5545 5547 5549 5550 5550 5549 5548 5545 5543 5541 5538 5534 5530 5527 5525 5523 5519 5517 5515 5513 5512 5513 5518 5528 5536 5542 5548 5552 5556 5561 5563 5567 5569 5571 5574 5577 5577
5512 5516 5520 5525 5531 5535 5538 5541 5542 5543 5543 5543 5542 5540 5539 5535 5532 5530 5527 5525 5523 5519 5516 5514 5512 5510 5508 5506 5505 5512 5519 5530 5535 5539 5545 5549 5554 5555 5559 5562 5565 5567 5570 5574
5507 5512 5519 5523 5527 5530 5533 5535 5536 5537 5537 5537 5535 5534 5531 5527 5525 5523 5521 5520 5517 5513 5510 5507 5506 5505 5504 5502 5501 5504 5512 5521 5528 5535 5540 5543 5547 5551 5553 5556 5559 5562 5565 5566
5504 5508 5514 5519 5522 5526 5528 5529 5530 5531 5531 5530 5529 5527 5524 5521 5519 5516 5515 5513 5510 5507 5503 5502 5502 5500 5498 5495 5497 5501 5508 5517 5522 5528 5533 5537 5541 5544 5546 5550 5552 5556 5558 5560
5500 5505 5510 5514 5518 5520 5522 5523 5525 5525 5525 5524 5521 5518 5516 5514 5512 5510 5507 5506 5505 5502 5500 5499 5498 5497 5494 5492 5493 5497 5505 5515 5520 5517 5526 5532 5535 5539 5542 5546 5551 5551 5554 5556
5497 5501 5505 5509 5512 5515 5516 5518 5519 5519 5518 5516 5513 5511 5510 5509 5507 5505 5502 5499 5499 5499 5499 5498 5497 5494 5493 5495 5494 5499 5504 5509 5515 5518 5523 5527 5533 5535 5538 5541 5543 5547 5549 5552
5493 5497 5501 5504 5507 5509 5511 5512 5512 5512 5511 5509 5507 5506 5506 5504 5502 5499 5495 5494 5495 5496 5497 5497 5495 5492 5493 5496 5497 5501 5504 5509 5513 5516 5519 5524 5528 5531 5534 5538 5542 5543 5545 5548
5488 5492 5496 5499 5502 5504 5505 5506 5506 5506 5505 5504 5503 5501 5500 5499 5496 5492 5490 5490 5491 5493 5495 5496 5493 5491 5494 5496 5500 5503 5507 5510 5513 5516 5519 5523 5526 5529 5532 5534 5535 5538 5541 5543
5482 5486 5490 5494 5496 5498 5499 5500 5500 5499 5499 5500 5498 5497 5495 5494 5491 5488 5487 5487 5489 5491 5493 5494 5494 5493 5495 5498 5502 5504 5506 5510 5514 5516 5517 5519 5523 5526 5528 5530 5532 5534 5536 5538
5476 5481 5485 5488 5490 5492 5494 5494 5494 5494 5494 5495 5494 5493 5492 5492 5489 5487 5485 5485 5487 5489 5491 5493 5493 5494 5496 5497 5496 5503 5504 5506 5509 5512 5514 5517 5519 5521 5523 5526 5528 5529 5531 5532
5471 5475 5478 5481 5484 5486 5488 5489 5489 5489 5489 5490 5491 5490 5489 5489 5487 5485 5484 5483 5485 5488 5490 5492 5492 5494 5495 5497 5497 5498 5498 5502 5506 5510 5512 5514 5515 5517 5519 5521 5522 5524 5525 5527
5464 5468 5472 5476 5479 5481 5482 5484 5485 5485 5486 5485 5485 5486 5486 5485 5484 5484 5482 5481 5482 5485 5488 5490 5492 5494 5495 5496 5498 5498 5499 5501 5505 5509 5510 5512 5513 5513 5514 5516 5517 5519 5521 5522
5458 5463 5467 5470 5473 5476 5478 5479 5480 5479 5480 5481 5480 5480 5479 5479 5479 5480 5480 5480 5480 5483 5486 5488 5491 5493 5494 5495 5495 5496 5498 5500 5503 5505 5508 5509 5511 5512 5513 5514 5515 5516 5518 5519
5452 5457 5461 5465 5468 5471 5474 5475 5474 5475 5475 5474 5474 5475 5475 5473 5473 5474 5474 5476 5476 5480 5484 5487 5490 5492 5493 5494 5495 5495 5496 5497 5498 5502 5505 5507 5508 5510 5511 5512 5513 5513 5515 5516
5447 5451 5456 5460 5464 5467 5469 5469 5470 5471 5470 5470 5469 5470 5469 5465 5464 5465 5467 5470 5474 5479 5482 5485 5488 5490 5491 5493 5493 5494 5494 5495 5497 5501 5504 5506 5507 5508 5509 5510 5511 5511 5512 5513
5442 5447 5451 5456 5459 5463 5464 5464 5466 5466 5468 5465 5466 5465 5463 5460 5458 5459 5463 5467 5474 5479 5482 5485 5488 5489 5490 5491 5492 5492 5493 5495 5498 5501 5503 5505 5506 5508 5508 5509 5509 5509 5510 5510
5438 5444 5448 5452 5456 5457 5460 5461 5461 5461 5461 5459 5461 5462 5461 5461 5460 5463 5467 5471 5476 5480 5484 5485 5487 5488 5488 5490 5491 5492 5494 5496 5498 5501 5503 5504 5505 5506 5507 5507 5507 5507 5507 5507
5434 5440 5445 5449 5452 5454 5455 5456 5458 5457 5457 5457 5459 5461 5462 5463 5464 5467 5471 5475 5478 5481 5484 5485 5486 5487 5488 5490 5491 5492 5494 5496 5498 5500 5501 5502 5503 5503 5503 5503 5503 5502 5502 5501
5433 5439 5444 5447 5449 5451 5453 5454 5455 5455 5456 5457 5459 5461 5463 5465 5468 5472 5475 5478 5480 5482 5484 5484 5485 5486 5488 5489 5491 5493 5495 5496 5498 5499 5499 5500 5500 5499 5498 5497 5496 5495 5494 5493
5431 5437 5441 5444 5447 5449 5451 5452 5454 5456 5458 5459 5462 5464 5467 5470 5472 5475 5477 5479 5481 5482 5483 5484 5485 5486 5488 5490 5491 5493 5494 5495 5496 5496 5495 5494 5493 5492 5490 5489 5487 5486 5484 5483
5431 5436 5440 5442 5445 5447 5448 5451 5454 5457 5460 5463 5465 5468 5470 5472 5474 5476 5478 5480 5481 5483 5483 5484 5485 5486 5488 5489 5490 5491 5492 5492 5491 5491 5490 5488 5487 5485 5483 5481 5480 5478 5476 5473
5431 5435 5438 5441 5443 5444 5448 5451 5455 5459 5462 5465 5468 5470 5472 5474 5476 5478 5479 5481 5482 5483 5483 5484 5485 5486 5487 5488 5488 5488 5488 5488 5487 5486 5484 5483 5480 5478 5476 5473 5470 5468 5465 5462
5431 5434 5437 5439 5442 5445 5449 5453 5457 5461 5464 5467 5470 5472 5474 5475 5476 5477 5479 5480 5481 5482 5482 5483 5483 5484 5484 5485 5485 5485 5484 5483 5482 5481 5478 5476 5473 5470 5467 5464 5460 5457 5453 5450
5430 5433 5435 5438 5442 5446 5451 5455 5459 5463 5466 5469 5471 5473 5474 5475 5475 5477 5477 5478 5479 5479 5480 5481 5481 5482 5482 5482 5482 5481 5480 5479 5477 5475 5472 5469 5466 5462 5458 5454 5450 5446 5442 5437
Wind_Speed
24 26 27 28 28 31 30 25 21 16 16 19 21 23 26 29 30 32 35 39 42 45 47 50 52 52 50 50 52 40 37 37 33 29 27 21 27 25 20 22 20 23 22 22
23 25 29 30 29 23 22 15 13 15 18 20 21 24 27 28 30 33 36 37 37 36 33 34 32 36 40 45 52 40 40 38 33 28 25 30 32 29 26 28 25 21 19 16
27 29 30 28 22 18 15 13 17 17 17 19 21 25 27 28 31 33 32 31 29 25 22 27 28 27 31 37 44 48 43 42 36 29 20 28 25 24 28 31 28 24 23 25
29 26 25 19 16 13 14 16 17 17 19 18 22 25 26 29 29 27 27 26 23 22 21 22 16 19 19 18 30 42 40 37 38 36 36 31 22 24 24 28 27 26 22 26
28 27 20 16 15 15 16 16 16 18 19 19 23 23 26 26 25 24 25 23 22 22 20 11 11 14 18 17 13 29 40 35 28 29 33 34 34 29 27 30 30 28 27 25
31 22 17 16 16 15 15 15 18 17 18 21 23 23 25 23 24 26 26 25 25 24 20 14 13 14 14 18 22 27 33 40 21 24 28 27 32 30 36 33 33 32 28 31
29 22 19 17 17 17 16 16 17 18 20 22 23 22 23 23 25 29 30 28 24 22 21 15 15 19 21 16 24 32 32 39 38 15 33 30 37 25 18 24 24 27 29 31
26 24 19 18 18 17 18 18 18 19 21 23 22 23 24 24 25 28 27 24 20 17 14 12 13 16 13 10 21 37 34 25 18 6 27 27 22 29 16 14 18 20 25 26
25 23 20 19 20 20 19 19 20 20 22 22 22 22 23 22 22 22 22 21 16 11 7 14 16 13 8 7 19 33 29 19 9 15 20 18 19 22 20 19 24 22 24 25
26 23 23 22 22 22 21 21 20 21 21 21 20 21 20 20 20 22 22 17 15 16 10 10 10 11 7 6 12 25 30 13 10 18 17 26 26 18 16 20 24 24 25 24
24 24 24 24 23 23 21 20 21 21 21 20 19 20 19 19 19 17 15 11 13 14 15 10 13 12 6 11 13 14 24 17 11 13 15 18 18 19 18 15 16 23 26 23
28 27 25 25 24 22 21 20 20 21 20 19 17 15 15 14 15 13 8 10 10 11 9 10 6 10 7 10 11 17 20 19 14 14 14 14 15 13 19 17 14 18 23 24
25 25 24 24 23 22 21 19 20 20 19 17 14 11 11 8 11 13 9 8 12 11 9 5 5 7 6 15 2 20 23 24 19 13 15 12 14 18 20 18 17 18 20 22
25 25 24 23 22 21 20 20 19 18 17 17 13 11 9 9 5 13 11 8 14 14 14 10 8 8 6 10 9 20 11 22 24 16 14 11 12 15 23 29 29 25 20 20
25 25 24 23 23 21 21 20 17 15 17 15 13 11 14 14 15 11 8 7 16 18 18 17 10 10 9 8 6 9 14 15 21 16 17 13 13 17 14 18 20 22 19 19
26 25 25 24 23 22 20 17 17 20 13 12 16 19 18 17 18 14 10 10 14 22 18 18 15 11 9 12 9 8 10 17 21 25 18 13 12 10 11 10 11 13 14 18
29 27 26 25 23 21 17 17 19 18 18 18 18 13 17 20 18 19 14 11 12 21 20 21 17 13 9 8 7 4 8 15 15 15 13 10 10 11 12 13 12 13 20 15
31 29 26 24 22 19 16 16 15 18 23 22 24 22 21 25 23 22 20 17 18 22 17 20 18 14 10 7 6 7 4 5 12 12 13 13 12 11 14 12 11 12 13 14
31 29 26 24 21 17 16 16 15 16 17 24 20 18 16 9 6 10 16 18 22 20 16 16 15 12 10 10 6 9 5 8 14 13 11 12 9 7 6 7 9 13 15 16
31 28 25 22 17 17 17 15 15 15 23 18 11 7 5 10 11 16 18 18 18 17 15 11 9 8 13 14 6 12 11 13 13 15 11 10 10 10 12 14 14 15 16 17
29 27 25 19 18 17 15 14 15 19 12 8 7 5 12 15 21 19 19 14 14 13 9 8 5 8 12 17 11 12 15 11 9 10 13 14 15 17 18 19 21 22 24 25
27 24 20 18 17 16 15 15 11 7 8 8 10 16 18 20 16 15 18 13 9 9 5 5 6 8 10 2 8 8 7 7 9 10 13 16 18 20 23 25 26 28 30 31
25 23 21 20 18 12 9 8 11 12 14 18 21 22 23 21 17 13 8 3 4 6 3 4 7 10 11 8 4 4 6 9 11 14 17 22 23 25 26 26 27 27 28 29
26 24 20 18 13 9 13 17 19 18 19 19 21 21 16 16 14 12 9 5 5 4 5 6 10 10 11 13 14 16 17 19 20 24 26 23 22 22 24 25 27 28 29 31
25 22 19 14 13 17 19 22 23 20 17 16 19 14 15 14 8 8 3 3 3 4 6 7 9 11 12 13 15 18 20 22 23 20 19 21 24 27 29 30 31 32 33 34
20 17 13 13 19 22 26 25 24 21 20 18 17 16 11 9 8 6 5 8 7 8 7 7 7 8 9 12 13 14 14 15 17 20 23 26 27 28 29 30 31 32 34 36
17 9 11 19 24 28 28 24 22 20 18 14 12 10 8 8 7 6 7 5 4 4 4 4 3 3 3 5 7 10 13 16 18 20 23 25 28 30 31 33 34 35 37 39
Wind_Direction
225 232 231 233 227 229 229 228 227 235 245 256 267 276 282 289 292 293 295 296 295 290 282 274 268 262 255 254 252 247 242 250 256 252 262 255 237 247 248 253 236 242 246 245
207 208 219 226 222 219 219 217 235 243 253 268 277 285 293 295 298 303 304 306 302 298 289 282 276 267 258 245 245 244 236 234 240 245 236 241 253 246 237 248 249 236 237 241
209 217 216 219 206 208 214 234 242 249 263 276 286 295 298 302 307 309 311 312 312 303 293 294 287 280 268 251 243 232 234 228 226 228 237 239 242 245 237 239 241 237 235 239
212 211 196 197 203 213 231 237 247 258 271 284 297 300 305 310 310 311 314 314 315 301 293 300 279 267 272 271 240 232 220 219 224 227 221 229 231 226 238 232 232 234 231 242
195 188 188 199 216 226 239 248 258 268 278 291 301 304 311 311 303 304 309 305 303 310 292 281 272 276 270 265 251 222 219 211 216 220 227 233 226 235 236 238 236 236 237 244
191 185 198 213 224 235 245 252 262 274 287 296 302 307 312 304 296 295 293 295 295 303 291 264 269 294 297 264 229 211 209 206 209 217 233 232 221 225 222 227 232 234 235 236
196 192 204 216 231 239 251 261 272 280 292 296 300 308 312 302 294 290 289 282 287 293 289 272 266 290 298 268 230 201 193 193 212 207 218 225 222 231 195 209 218 228 236 243
205 199 208 225 236 248 257 265 276 284 293 299 308 316 317 309 299 293 290 281 274 293 292 281 279 294 314 285 215 194 191 182 183 134 198 215 230 230 223 221 234 235 241 248
215 207 218 231 243 250 260 269 277 289 296 308 316 318 314 306 297 293 288 283 261 250 227 280 306 323 272 269 213 202 176 150 171 144 185 185 223 227 238 243 242 245 251 254
224 218 226 236 245 253 263 271 282 290 301 311 315 311 305 302 301 293 284 273 240 224 232 279 309 308 201 176 221 209 210 174 162 173 172 206 216 208 207 233 245 244 250 256
223 228 235 241 247 255 263 273 284 293 303 310 307 304 301 309 314 297 284 255 232 236 225 255 306 113 178 173 191 203 214 213 225 210 194 201 205 213 221 238 250 248 245 252
229 233 237 243 248 256 265 273 284 291 302 302 298 296 307 324 323 320 291 245 223 197 209 257 140 132 154 161 205 208 204 194 205 207 224 216 225 225 231 248 264 250 246 247
233 234 237 242 247 253 261 272 281 291 296 292 286 280 299 320 344 340 314 243 218 194 187 217 180 138 180 174 101 201 223 219 223 223 216 205 219 236 246 256 272 259 236 232
230 231 233 236 242 250 258 267 279 285 284 279 269 265 285 292 311 340 325 267 213 194 174 181 177 166 196 204 216 209 222 221 225 217 198 222 248 259 260 255 265 258 244 234
226 228 230 234 238 246 254 264 276 271 265 260 256 261 271 276 258 302 312 286 215 198 182 181 179 182 186 191 194 241 221 216 210 205 213 238 253 260 243 239 241 244 242 233
224 225 228 232 236 243 253 266 262 267 244 247 270 269 281 272 275 271 306 297 232 202 197 186 195 188 192 193 222 208 205 213 212 217 216 212 224 206 239 233 235 225 220 233
221 222 225 229 235 242 249 249 263 254 237 247 260 268 270 274 269 269 272 259 233 196 196 191 194 195 200 196 214 220 230 213 205 188 192 196 197 214 223 229 242 231 219 231
218 218 222 226 232 239 248 249 250 241 246 265 276 291 286 284 274 248 248 230 190 186 191 190 198 209 221 222 246 242 272 244 160 176 192 207 214 211 212 220 232 225 235 232
216 214 215 221 227 232 237 238 234 244 255 270 278 283 292 297 189 185 171 170 177 182 177 176 188 202 218 221 245 262 231 167 166 169 182 186 186 202 224 237 241 243 246 243
210 209 211 218 222 230 236 238 251 279 280 276 249 248 267 181 154 150 149 159 165 173 174 175 181 194 210 209 240 208 198 182 179 174 190 213 233 254 270 269 267 268 264 263
199 204 206 207 213 224 233 247 264 275 261 226 183 171 155 147 143 138 138 154 160 170 164 164 198 223 221 223 194 205 205 219 249 241 256 265 267 273 277 276 275 272 270 270
190 198 199 203 211 220 236 254 260 216 174 162 167 165 151 149 137 139 136 133 148 177 222 237 222 217 212 116 132 160 196 227 251 263 269 272 274 275 277 277 276 275 274 275
182 181 190 201 210 227 241 194 164 153 142 142 141 138 131 136 139 142 144 142 156 191 183 198 209 199 207 225 245 263 275 277 279 288 296 298 298 292 286 283 282 282 281 280
175 185 198 209 216 209 173 160 152 142 143 139 143 145 148 150 148 165 153 117 137 161 195 211 203 212 226 246 262 274 282 289 292 294 293 289 292 295 295 292 290 288 287 287
184 195 204 200 192 169 161 156 150 152 154 155 164 169 157 167 152 180 147 192 211 213 211 216 220 231 239 248 260 272 282 286 289 288 290 293 293 294 293 291 288 287 285 284
188 189 186 189 169 158 155 152 150 154 154 153 153 166 186 189 181 189 202 234 233 236 238 239 238 244 261 271 279 285 290 291 291 291 292 292 292 292 291 291 290 288 287 286
175 175 188 175 164 161 158 153 153 154 156 159 158 162 184 221 240 231 239 244 246 239 234 238 241 250 275 288 287 289 288 291 296 299 300 301 301 300 298 296 295 294 293 292